| time (UTC) | temp C | wind direction | speed KPH | gust KPH | rain 1hr cm | rain 24hr cm | rain mn cm | humidity % | barometer mb |
| 20260506070524 | 12 | 77 | 4.8 | 11.3 | 0.00 | 0.00 | 0.00 | 68 | 1010.4 |
| 20260506061518 | 11 | 268 | 4.8 | 6.4 | 0.00 | 0.00 | 0.00 | 71 | 1010.0 |
| 20260506060521 | 11 | 25 | 4.8 | 12.9 | 0.00 | 0.00 | 0.00 | 71 | 1009.9 |
| 20260506050516 | 10 | 49 | 3.2 | 8.0 | 0.00 | 0.00 | 0.00 | 74 | 1010.3 |
| 20260506044527 | 10 | 351 | 3.2 | 8.0 | 0.00 | 0.00 | 0.00 | 74 | 1010.3 |
| 20260506043526 | 10 | 24 | 3.2 | 8.0 | 0.00 | 0.00 | 0.00 | 74 | 1010.2 |
| 20260506042516 | 10 | 76 | 3.2 | 6.4 | 0.00 | 0.00 | 0.00 | 74 | 1010.4 |
| 20260506041517 | 10 | 110 | 3.2 | 8.0 | 0.00 | 0.00 | 0.00 | 73 | 1010.5 |
| 20260506040517 | 10 | 357 | 3.2 | 9.7 | 0.00 | 0.00 | 0.00 | 73 | 1010.5 |
| 20260506035520 | 10 | 24 | 3.2 | 6.4 | 0.00 | 0.00 | 0.00 | 73 | 1010.5 |
| 20260506034542 | 10 | 73 | 1.6 | 8.0 | 0.00 | 0.00 | 0.00 | 73 | 1010.5 |
| 20260506033522 | 10 | 172 | 1.6 | 6.4 | 0.00 | 0.00 | 0.00 | 73 | 1010.5 |
| 20260506032524 | 10 | 86 | 1.6 | 4.8 | 0.00 | 0.00 | 0.00 | 72 | 1010.6 |
| 20260506031526 | 10 | 95 | 1.6 | 3.2 | 0.00 | 0.00 | 0.00 | 72 | 1010.7 |
| 20260506030537 | 10 | 55 | 3.2 | 8.0 | 0.00 | 0.00 | 0.00 | 73 | 1010.7 |
| 20260506025518 | 10 | 80 | 3.2 | 11.3 | 0.00 | 0.00 | 0.00 | 73 | 1010.7 |
| 20260506024530 | 9 | 39 | 3.2 | 6.4 | 0.00 | 0.00 | 0.00 | 73 | 1010.9 |
| 20260506023542 | 9 | 254 | 1.6 | 6.4 | 0.00 | 0.00 | 0.00 | 73 | 1011.0 |
| 20260506022525 | 9 | 32 | 3.2 | 4.8 | 0.00 | 0.00 | 0.00 | 73 | 1011.0 |
| 20260506021516 | 9 | 22 | 1.6 | 4.8 | 0.00 | 0.00 | 0.00 | 73 | 1011.0 |
| 20260506020558 | 9 | 106 | 1.6 | 4.8 | 0.00 | 0.00 | 0.00 | 73 | 1011.1 |
| 20260506015529 | 9 | 29 | 1.6 | 6.4 | 0.00 | 0.00 | 0.00 | 73 | 1011.2 |
| 20260506014517 | 9 | 320 | 3.2 | 4.8 | 0.00 | 0.00 | 0.00 | 73 | 1011.2 |
| 20260506013517 | 9 | 9 | 3.2 | 8.0 | 0.00 | 0.00 | 0.00 | 73 | 1011.2 |
| 20260506012518 | 9 | 22 | 1.6 | 6.4 | 0.00 | 0.00 | 0.00 | 73 | 1011.3 |
| 20260506011520 | 8 | 100 | 1.6 | 3.2 | 0.00 | 0.00 | 0.00 | 73 | 1011.4 |
| 20260506010515 | 8 | 29 | 1.6 | 6.4 | 0.00 | 0.00 | 0.00 | 73 | 1011.6 |
| 20260506005517 | 8 | 21 | 1.6 | 4.8 | 0.00 | 0.00 | 0.00 | 73 | 1011.7 |
| 20260506004519 | 8 | 121 | 1.6 | 6.4 | 0.00 | 0.00 | 0.00 | 73 | 1011.9 |
| 20260506003542 | 8 | 158 | 3.2 | 9.7 | 0.00 | 0.00 | 0.00 | 72 | 1012.0 |
| 20260506002525 | 8 | 83 | 1.6 | 4.8 | 0.00 | 0.00 | 0.00 | 72 | 1012.0 |
| 20260506001526 | 8 | 192 | 1.6 | 6.4 | 0.00 | 0.00 | 0.00 | 71 | 1012.0 |
| 20260506000525 | 8 | 69 | 3.2 | 4.8 | 0.00 | 0.00 | 0.00 | 70 | 1012.0 |
| 20260505235525 | 8 | 29 | 1.6 | 3.2 | 0.00 | 0.00 | 0.00 | 70 | 1012.1 |
| 20260505234517 | 8 | 109 | 3.2 | 8.0 | 0.00 | 0.00 | 0.00 | 70 | 1012.3 |
| 20260505233518 | 8 | 33 | 1.6 | 4.8 | 0.00 | 0.00 | 0.00 | 69 | 1012.5 |
| 20260505232521 | 8 | 68 | 3.2 | 8.0 | 0.00 | 0.00 | 0.00 | 69 | 1012.6 |
| 20260505231520 | 8 | 360 | 1.6 | 8.0 | 0.00 | 0.00 | 0.00 | 68 | 1012.7 |
| 20260505230542 | 8 | 142 | 1.6 | 3.2 | 0.00 | 0.00 | 0.00 | 68 | 1012.7 |
| 20260505225523 | 8 | 332 | 1.6 | 8.0 | 0.00 | 0.00 | 0.00 | 67 | 1012.7 |
| 20260505224524 | 8 | 102 | 1.6 | 4.8 | 0.00 | 0.00 | 0.00 | 67 | 1012.8 |
| 20260505223515 | 8 | 79 | 3.2 | 6.4 | 0.00 | 0.00 | 0.00 | 66 | 1012.8 |
| 20260505222538 | 8 | 55 | 1.6 | 6.4 | 0.00 | 0.00 | 0.00 | 66 | 1012.9 |
| 20260505221520 | 8 | 134 | 1.6 | 8.0 | 0.00 | 0.00 | 0.00 | 66 | 1013.0 |
| 20260505220519 | 9 | 19 | 1.6 | 4.8 | 0.00 | 0.00 | 0.00 | 65 | 1013.1 |
| 20260505215539 | 9 | 139 | 1.6 | 4.8 | 0.00 | 0.00 | 0.00 | 65 | 1013.1 |
| 20260505214516 | 9 | 52 | 1.6 | 1.6 | 0.00 | 0.00 | 0.00 | 65 | 1013.2 |
| 20260505213541 | 9 | 323 | 0.0 | 6.4 | 0.00 | 0.00 | 0.00 | 64 | 1013.3 |
| 20260505212519 | 9 | 46 | 1.6 | 1.6 | 0.00 | 0.00 | 0.00 | 64 | 1013.4 |
| 20260505211530 | 10 | 108 | 1.6 | 4.8 | 0.00 | 0.00 | 0.00 | 64 | 1013.5 |
| 20260505210516 | 10 | 24 | 1.6 | 4.8 | 0.00 | 0.00 | 0.00 | 64 | 1013.6 |
| 20260505205518 | 10 | 95 | 1.6 | 4.8 | 0.00 | 0.00 | 0.00 | 63 | 1013.8 |
| 20260505204518 | 10 | 118 | 3.2 | 6.4 | 0.00 | 0.00 | 0.00 | 63 | 1013.7 |
| 20260505203539 | 10 | 42 | 3.2 | 6.4 | 0.00 | 0.00 | 0.00 | 63 | 1013.6 |
| 20260505202524 | 10 | 12 | 3.2 | 8.0 | 0.00 | 0.00 | 0.00 | 63 | 1013.5 |
| 20260505201526 | 10 | 16 | 3.2 | 8.0 | 0.00 | 0.00 | 0.00 | 63 | 1013.5 |
| 20260505200525 | 10 | 55 | 3.2 | 6.4 | 0.00 | 0.00 | 0.00 | 62 | 1013.6 |
| 20260505195526 | 10 | 34 | 3.2 | 4.8 | 0.00 | 0.00 | 0.00 | 62 | 1013.6 |
| 20260505194541 | 10 | 339 | 3.2 | 8.0 | 0.00 | 0.00 | 0.00 | 62 | 1013.4 |
| 20260505193521 | 10 | 121 | 3.2 | 6.4 | 0.00 | 0.00 | 0.00 | 61 | 1013.3 |
| 20260505192523 | 10 | 81 | 3.2 | 6.4 | 0.00 | 0.00 | 0.00 | 61 | 1013.2 |
| 20260505191519 | 11 | 101 | 3.2 | 4.8 | 0.00 | 0.00 | 0.00 | 60 | 1013.1 |
| 20260505190521 | 11 | 142 | 4.8 | 8.0 | 0.00 | 0.00 | 0.00 | 59 | 1013.2 |
| 20260505185523 | 11 | 121 | 4.8 | 8.0 | 0.00 | 0.00 | 0.00 | 59 | 1013.3 |
| 20260505184524 | 11 | 44 | 4.8 | 8.0 | 0.00 | 0.00 | 0.00 | 59 | 1013.2 |
| 20260505183524 | 12 | 112 | 4.8 | 9.7 | 0.00 | 0.00 | 0.00 | 58 | 1013.2 |
| 20260505182526 | 12 | 39 | 6.4 | 14.5 | 0.00 | 0.00 | 0.00 | 58 | 1013.3 |
| 20260505181516 | 12 | 85 | 6.4 | 11.3 | 0.00 | 0.00 | 0.00 | 58 | 1013.3 |
| 20260505180540 | 12 | 35 | 8.0 | 16.1 | 0.00 | 0.00 | 0.00 | 57 | 1013.4 |
| 20260505175522 | 13 | 123 | 6.4 | 17.7 | 0.00 | 0.00 | 0.00 | 56 | 1013.5 |
| 20260505174523 | 13 | 126 | 8.0 | 12.9 | 0.00 | 0.00 | 0.00 | 55 | 1013.5 |
| 20260505173522 | 13 | 58 | 8.0 | 16.1 | 0.00 | 0.00 | 0.00 | 55 | 1013.5 |
| 20260505172525 | 13 | 58 | 6.4 | 17.7 | 0.00 | 0.00 | 0.00 | 55 | 1013.4 |
| 20260505171525 | 13 | 55 | 4.8 | 14.5 | 0.00 | 0.00 | 0.00 | 55 | 1013.3 |
| 20260505170524 | 13 | 19 | 6.4 | 12.9 | 0.00 | 0.00 | 0.00 | 54 | 1013.3 |
| 20260505165528 | 14 | 73 | 4.8 | 11.3 | 0.00 | 0.00 | 0.00 | 53 | 1013.3 |
| 20260505164526 | 14 | 79 | 6.4 | 9.7 | 0.00 | 0.00 | 0.00 | 52 | 1013.4 |
| 20260505163544 | 15 | 65 | 6.4 | 16.1 | 0.00 | 0.00 | 0.00 | 51 | 1013.5 |
| 20260505162525 | 15 | 74 | 8.0 | 11.3 | 0.00 | 0.00 | 0.00 | 50 | 1013.5 |
| 20260505161516 | 15 | 99 | 6.4 | 9.7 | 0.00 | 0.00 | 0.00 | 49 | 1013.6 |
| 20260505160544 | 15 | 68 | 6.4 | 16.1 | 0.00 | 0.00 | 0.00 | 49 | 1013.6 |
| 20260505152518 | 16 | 97 | 6.4 | 17.7 | 0.00 | 0.00 | 0.00 | 48 | 1013.6 |
| 20260505151520 | 16 | 105 | 6.4 | 11.3 | 0.00 | 0.00 | 0.00 | 48 | 1013.5 |
| 20260505150524 | 16 | 103 | 4.8 | 14.5 | 0.00 | 0.00 | 0.00 | 48 | 1013.5 |
| 20260505140519 | 16 | 65 | 6.4 | 11.3 | 0.00 | 0.00 | 0.00 | 48 | 1013.6 |
| 20260505124521 | 15 | 86 | 8.0 | 17.7 | 0.00 | 0.00 | 0.00 | 49 | 1013.6 |
| 20260505123524 | 15 | 59 | 8.0 | 11.3 | 0.00 | 0.00 | 0.00 | 50 | 1013.5 |
| 20260505122524 | 15 | 58 | 8.0 | 16.1 | 0.00 | 0.00 | 0.00 | 50 | 1013.6 |
| 20260505121522 | 15 | 79 | 8.0 | 14.5 | 0.00 | 0.00 | 0.00 | 51 | 1013.6 |
| 20260505120524 | 15 | 125 | 4.8 | 14.5 | 0.00 | 0.00 | 0.00 | 50 | 1013.7 |
| 20260505115516 | 15 | 43 | 6.4 | 9.7 | 0.00 | 0.00 | 0.00 | 51 | 1013.8 |
| 20260505114516 | 15 | 79 | 6.4 | 17.7 | 0.00 | 0.00 | 0.00 | 50 | 1013.7 |
| 20260505113518 | 15 | 347 | 6.4 | 14.5 | 0.00 | 0.00 | 0.00 | 51 | 1013.7 |
| 20260505112539 | 15 | 60 | 6.4 | 8.0 | 0.00 | 0.00 | 0.00 | 52 | 1013.7 |
| 20260505111521 | 15 | 72 | 6.4 | 12.9 | 0.00 | 0.00 | 0.00 | 52 | 1013.7 |
| 20260505110524 | 15 | 23 | 4.8 | 14.5 | 0.00 | 0.00 | 0.00 | 53 | 1013.8 |
| 20260505101518 | 14 | 58 | 8.0 | 9.7 | 0.00 | 0.00 | 0.00 | 53 | 1013.9 |
| 20260505100519 | 14 | 75 | 8.0 | 12.9 | 0.00 | 0.00 | 0.00 | 53 | 1013.9 |
| 20260505095518 | 13 | 108 | 8.0 | 12.9 | 0.00 | 0.00 | 0.00 | 53 | 1013.8 |
| 20260505094520 | 13 | 154 | 8.0 | 12.9 | 0.00 | 0.00 | 0.00 | 54 | 1013.8 |
| 20260505093524 | 13 | 62 | 8.0 | 19.3 | 0.00 | 0.00 | 0.00 | 54 | 1013.7 |
| 20260505092526 | 13 | 126 | 9.7 | 16.1 | 0.00 | 0.00 | 0.00 | 55 | 1013.8 |
| 20260505091516 | 13 | 96 | 9.7 | 16.1 | 0.00 | 0.00 | 0.00 | 54 | 1013.8 |
| 20260505090518 | 13 | 72 | 8.0 | 16.1 | 0.00 | 0.00 | 0.00 | 55 | 1013.6 |
| 20260505085519 | 12 | 16 | 9.7 | 14.5 | 0.00 | 0.00 | 0.00 | 56 | 1013.5 |
| 20260505084520 | 12 | 73 | 6.4 | 12.9 | 0.00 | 0.00 | 0.00 | 58 | 1013.4 |
| 20260505083522 | 12 | 68 | 8.0 | 11.3 | 0.00 | 0.00 | 0.00 | 59 | 1013.3 |
| 20260505082520 | 12 | 55 | 6.4 | 14.5 | 0.00 | 0.00 | 0.00 | 59 | 1013.4 |
| 20260505081603 | 12 | 60 | 4.8 | 9.7 | 0.00 | 0.00 | 0.00 | 61 | 1013.5 |
| 20260505080525 | 12 | 122 | 8.0 | 11.3 | 0.00 | 0.00 | 0.00 | 61 | 1013.6 |
| 20260505075524 | 12 | 56 | 8.0 | 16.1 | 0.00 | 0.00 | 0.00 | 63 | 1013.6 |
| 20260505074515 | 11 | 79 | 8.0 | 19.3 | 0.00 | 0.00 | 0.00 | 63 | 1013.7 |
| 20260505073515 | 11 | 99 | 6.4 | 12.9 | 0.00 | 0.00 | 0.00 | 65 | 1013.8 |
| 20260505072516 | 11 | 50 | 6.4 | 12.9 | 0.00 | 0.00 | 0.00 | 66 | 1013.8 |
| 20260505071517 | 11 | 95 | 4.8 | 9.7 | 0.00 | 0.00 | 0.00 | 67 | 1013.9 |